Time,TemperatureF,DewpointF,PressureIn,WindDirection,WindDirectionDegrees,WindSpeedMPH,WindSpeedGustMPH,Humidity,HourlyPrecipIn,Conditions,Clouds,dailyrainin,SolarRadiationWatts/m^2,SoftwareType,DateUTC
2015-08-27 00:00:00,73.0,44.0,-100.00,East,98,1.0,2.0,35,-99.99,,,-99.99,0.000000,,2015-08-27 07:00:00,
2015-08-27 00:43:00,73.0,44.0,-100.00,East,98,1.0,2.0,35,-99.99,,,-99.99,0.000000,,2015-08-27 07:43:00,
2015-08-27 00:53:00,73.0,44.0,-100.00,East,98,1.0,2.0,35,-99.99,,,-99.99,0.000000,,2015-08-27 07:53:00,
2015-08-27 01:00:00,73.0,48.0,-100.00,WNW,293,7.0,15.0,41,-99.99,,,-99.99,0.000000,,2015-08-27 08:00:00,
2015-08-27 01:43:00,73.0,48.0,-100.00,WNW,293,7.0,15.0,41,-99.99,,,-99.99,0.000000,,2015-08-27 08:43:00,
2015-08-27 01:53:00,73.0,48.0,-100.00,WNW,293,7.0,15.0,41,-99.99,,,-99.99,0.000000,,2015-08-27 08:53:00,
2015-08-27 02:00:00,69.0,48.0,-100.00,SE,145,2.0,4.0,47,-99.99,,,-99.99,0.000000,,2015-08-27 09:00:00,
2015-08-27 02:43:00,69.0,48.0,-100.00,SE,145,2.0,4.0,47,-99.99,,,-99.99,0.000000,,2015-08-27 09:43:00,
2015-08-27 02:53:00,69.0,48.0,-100.00,SE,145,2.0,4.0,47,-99.99,,,-99.99,0.000000,,2015-08-27 09:53:00,
2015-08-27 03:00:00,70.0,50.0,-100.00,WNW,286,2.0,13.0,48,-99.99,,,-99.99,0.000000,,2015-08-27 10:00:00,
2015-08-27 03:43:00,70.0,50.0,-100.00,WNW,286,2.0,13.0,48,-99.99,,,-99.99,0.000000,,2015-08-27 10:43:00,
2015-08-27 03:54:00,70.0,50.0,-100.00,WNW,286,2.0,13.0,48,-99.99,,,-99.99,0.000000,,2015-08-27 10:54:00,
2015-08-27 04:00:00,69.0,50.0,-100.00,West,274,3.0,9.0,50,-99.99,,,-99.99,0.000000,,2015-08-27 11:00:00,
2015-08-27 04:44:00,69.0,50.0,-100.00,West,274,3.0,9.0,50,-99.99,,,-99.99,0.000000,,2015-08-27 11:44:00,
2015-08-27 04:54:00,69.0,50.0,-100.00,West,274,3.0,9.0,50,-99.99,,,-99.99,0.000000,,2015-08-27 11:54:00,
2015-08-27 05:00:00,61.0,49.0,-100.00,South,183,1.0,3.0,62,-99.99,,,-99.99,0.000000,,2015-08-27 12:00:00,
2015-08-27 06:00:00,60.0,49.0,-100.00,ESE,117,2.0,4.0,66,-99.99,,,-99.99,0.000000,,2015-08-27 13:00:00,
2015-08-27 08:00:00,61.0,50.0,-100.00,ESE,107,3.0,5.0,67,-99.99,,,-99.99,204.899994,,2015-08-27 15:00:00,
2015-08-27 08:43:00,61.0,50.0,-100.00,ESE,107,3.0,5.0,67,-99.99,,,-99.99,204.899994,,2015-08-27 15:43:00,
2015-08-27 08:53:00,61.0,50.0,-100.00,ESE,107,3.0,5.0,67,-99.99,,,-99.99,204.899994,,2015-08-27 15:53:00,
2015-08-27 09:00:00,68.0,53.0,-100.00,SSE,162,2.0,4.0,58,-99.99,,,-99.99,317.630005,,2015-08-27 16:00:00,
2015-08-27 09:44:00,68.0,53.0,-100.00,SSE,162,2.0,4.0,58,-99.99,,,-99.99,317.630005,,2015-08-27 16:44:00,
2015-08-27 09:54:00,68.0,53.0,-100.00,SSE,162,2.0,4.0,58,-99.99,,,-99.99,317.630005,,2015-08-27 16:54:00,
2015-08-27 10:00:00,75.0,53.0,-100.00,SSE,162,2.0,4.0,46,-99.99,,,-99.99,561.809998,,2015-08-27 17:00:00,
2015-08-27 10:44:00,75.0,53.0,-100.00,SSE,162,2.0,4.0,46,-99.99,,,-99.99,561.809998,,2015-08-27 17:44:00,
2015-08-27 10:54:00,75.0,53.0,-100.00,SSE,162,2.0,4.0,46,-99.99,,,-99.99,561.809998,,2015-08-27 17:54:00,
2015-08-27 11:00:00,80.0,49.0,-100.00,WNW,291,3.0,11.0,32,-99.99,,,-99.99,692.210022,,2015-08-27 18:00:00,
2015-08-27 11:44:00,80.0,49.0,-100.00,WNW,291,3.0,11.0,32,-99.99,,,-99.99,692.210022,,2015-08-27 18:44:00,
2015-08-27 11:55:00,80.0,49.0,-100.00,WNW,291,3.0,11.0,32,-99.99,,,-99.99,692.210022,,2015-08-27 18:55:00,
2015-08-27 12:00:00,83.0,46.0,-100.00,WNW,299,5.0,11.0,27,-99.99,,,-99.99,786.929993,,2015-08-27 19:00:00,
2015-08-27 12:44:00,83.0,46.0,-100.00,WNW,299,5.0,11.0,27,-99.99,,,-99.99,786.929993,,2015-08-27 19:44:00,
2015-08-27 12:54:00,83.0,46.0,-100.00,WNW,299,5.0,11.0,27,-99.99,,,-99.99,786.929993,,2015-08-27 19:54:00,
2015-08-27 13:00:00,87.0,45.0,-100.00,WNW,288,4.0,11.0,23,-99.99,,,-99.99,824.580017,,2015-08-27 20:00:00,
2015-08-27 13:43:00,87.0,45.0,-100.00,WNW,288,4.0,11.0,23,-99.99,,,-99.99,824.580017,,2015-08-27 20:43:00,
2015-08-27 13:53:00,87.0,45.0,-100.00,WNW,288,4.0,11.0,23,-99.99,,,-99.99,824.580017,,2015-08-27 20:53:00,
2015-08-27 14:36:00,87.0,48.0,-100.00,WNW,291,7.0,17.0,25,-99.99,,,-99.99,807.960022,,2015-08-27 21:36:00,
2015-08-27 14:44:00,87.0,48.0,-100.00,WNW,291,7.0,17.0,25,-99.99,,,-99.99,807.960022,,2015-08-27 21:44:00,
2015-08-27 14:54:00,87.0,48.0,-100.00,WNW,291,7.0,17.0,25,-99.99,,,-99.99,807.960022,,2015-08-27 21:54:00,
2015-08-27 15:00:00,88.0,46.0,-100.00,WNW,300,7.0,19.0,23,-99.99,,,-99.99,736.599976,,2015-08-27 22:00:00,
2015-08-27 15:43:00,88.0,46.0,-100.00,WNW,300,7.0,19.0,23,-99.99,,,-99.99,736.599976,,2015-08-27 22:43:00,
2015-08-27 15:54:00,88.0,46.0,-100.00,WNW,300,7.0,19.0,23,-99.99,,,-99.99,736.599976,,2015-08-27 22:54:00,
2015-08-27 16:00:00,89.0,46.0,-100.00,WNW,302,4.0,13.0,22,-99.99,,,-99.99,607.369995,,2015-08-27 23:00:00,
2015-08-27 16:43:00,89.0,46.0,-100.00,WNW,302,4.0,13.0,22,-99.99,,,-99.99,607.369995,,2015-08-27 23:43:00,
2015-08-27 16:54:00,89.0,46.0,-100.00,WNW,302,4.0,13.0,22,-99.99,,,-99.99,607.369995,,2015-08-27 23:54:00,
2015-08-27 17:00:00,87.0,45.0,-100.00,WNW,292,4.0,11.0,23,-99.99,,,-99.99,186.770004,,2015-08-28 00:00:00,
2015-08-27 17:44:00,87.0,45.0,-100.00,WNW,292,4.0,11.0,23,-99.99,,,-99.99,186.770004,,2015-08-28 00:44:00,
2015-08-27 17:54:00,87.0,45.0,-100.00,WNW,292,4.0,11.0,23,-99.99,,,-99.99,186.770004,,2015-08-28 00:54:00,
2015-08-27 18:00:00,86.0,45.0,-100.00,NW,306,4.0,11.0,24,-99.99,,,-99.99,305.890015,,2015-08-28 01:00:00,
2015-08-27 18:43:00,86.0,45.0,-100.00,NW,306,4.0,11.0,24,-99.99,,,-99.99,305.890015,,2015-08-28 01:43:00,
2015-08-27 18:53:00,86.0,45.0,-100.00,NW,306,4.0,11.0,24,-99.99,,,-99.99,305.890015,,2015-08-28 01:53:00,
2015-08-27 19:00:00,84.0,43.0,-100.00,WNW,293,5.0,13.0,24,-99.99,,,-99.99,88.089996,,2015-08-28 02:00:00,
2015-08-27 19:43:00,84.0,43.0,-100.00,WNW,293,5.0,13.0,24,-99.99,,,-99.99,88.089996,,2015-08-28 02:43:00,
2015-08-27 19:53:00,84.0,43.0,-100.00,WNW,293,5.0,13.0,24,-99.99,,,-99.99,88.089996,,2015-08-28 02:53:00,
2015-08-27 20:43:00,81.0,44.0,-100.00,WNW,301,5.0,10.0,26,-99.99,,,-99.99,4.070000,,2015-08-28 03:43:00,
2015-08-27 20:54:00,81.0,44.0,-100.00,WNW,301,5.0,10.0,26,-99.99,,,-99.99,4.070000,,2015-08-28 03:54:00,